Flag for United Kingdom Weather past 2 weeks in Watford, England, United Kingdom

Now
54 °F

Passing clouds.


Feels Like: 48 °F
Forecast: 44 / 53 °F
Wind: 22 mph from Northwest

Location: Northolt

Current Time: Oct 21, 2014 at 4:39:19 PM

Latest Report: Oct 21, 2014 at 3:50 PM


Visibility: N/A

Pressure: 29.80 "Hg

Humidity: 58%

Dew point: 39 °F

Location of WatfordLocation

Historic Weather in Watford — Graph

°F

Watford temperature yesterday

Maximum temperature yesterday: 61 °F (at 11:50 AM)
Minimum temperature yesterday: 54 °F (at 7:50 AM)
Average temperature yesterday: 57 °F

Past Weeks' High & Low Weather Summary

 TemperatureHumidityPressure
High68 °F (Oct 19, 2:50 PM)100% (Oct 6, 9:50 PM)30.04 "Hg (Oct 6, 9:50 PM)
Low39 °F (Oct 12, 3:50 AM)45% (Oct 7, 2:50 PM)29.33 "Hg (Oct 7, 6:50 AM)
Average56 °F84%29.68 "Hg
* Reported Oct 6 2:50 PM — Oct 21 2:50 PM, Watford, Weather by CustomWeather, © 2014

Note: Actual official high and low records may vary slightly from our data, if they occured in-between our weather recording intervals... More about our weather records

Advertising

Watford weather history for previous 24 hours

 ConditionsComfort  
Time TempWeatherWind HumidityBarometerVisibility
2:50 PM
Oct 21
52 °FPassing clouds.21 mph67%29.77 "HgN/A
1:50 PM55 °FPartly sunny.22 mph47%29.74 "HgN/A
12:50 PM50 °FSprinkles. Scattered clouds.31 mph71%29.71 "HgN/A
11:50 AM54 °FPartly sunny.25 mph54%29.68 "HgN/A
10:50 AM54 °FScattered clouds.31 mph58%29.62 "HgN/A
9:50 AM52 °FScattered clouds.24 mph82%29.59 "HgN/A
8:50 AM57 °FBroken clouds.18 mph82%29.53 "HgN/A
7:50 AM57 °FPassing clouds.17 mph88%29.53 "HgN/A
6:50 AM57 °FPassing clouds.16 mph82%29.53 "HgN/A
5:50 AM55 °FPassing clouds.14 mph88%29.59 "HgN/A
4:50 AM55 °FPassing clouds.15 mph88%29.65 "Hg4 mi
3:50 AM57 °FPartly cloudy.17 mph72%29.68 "HgN/A
2:50 AM57 °FPartly cloudy.14 mph77%29.74 "HgN/A
1:50 AM55 °FPartly cloudy.9 mph82%29.77 "HgN/A
12:50 AM54 °FPassing clouds.9 mph88%29.83 "HgN/A
11:50 PM
Oct 20
54 °FPassing clouds.8 mph88%29.86 "HgN/A
10:50 PM55 °FOvercast.9 mph82%29.86 "HgN/A
9:50 PM55 °FPassing clouds.10 mph82%29.89 "HgN/A
8:50 PM55 °FPassing clouds.7 mph82%29.92 "HgN/A
7:50 PM57 °FPassing clouds.8 mph77%29.95 "HgN/A
6:50 PM55 °FSunny.6 mph82%29.95 "Hg10 mi
5:50 PM55 °FPartly sunny.7 mph88%29.95 "HgN/A
4:50 PM57 °FSprinkles. Broken clouds.10 mph82%29.95 "HgN/A
Weather by CustomWeather, © 2014

See weather overviewHow to use our weather pages